FW3072 Weather Reports


time (UTC)temp
C
wind
direction
speed
KPH
gust
KPH
rain 1hr
cm
rain 24hr
cm
rain mn
cm
humidity
%
barometer
mb
20260905163203 22 359 4.8 8.0 0.00 0.00 0.00 73 1013.8
20260905162204 22 359 1.6 12.9 0.00 0.00 0.00 71 1013.9
20260905161226 22 359 4.8 9.7 0.00 0.00 0.00 73 1013.8
20260905160205 22 1 8.0 19.3 0.00 0.00 0.00 74 1013.9
20260905155204 21 0 6.4 17.7 0.00 0.00 0.00 74 1014.0
20260905154203 21 0 6.4 14.5 0.00 0.00 0.00 76 1014.0
20260905153204 21 359 0.0 9.7 0.00 0.00 0.00 77 1013.9
20260905152224 21 0 3.2 9.7 0.00 0.00 0.00 78 1014.0
20260905151205 21 359 3.2 14.5 0.00 0.00 0.00 80 1014.2
20260905150204 20 359 8.0 16.1 0.00 0.00 0.00 80 1014.2
20260905145226 20 359 3.2 16.1 0.00 0.00 0.00 82 1014.1
20260905144204 19 359 1.6 8.0 0.00 0.00 0.00 83 1014.1
20260905143225 19 359 1.6 8.0 0.00 0.00 0.00 84 1014.1
20260905142203 19 360 0.0 6.4 0.00 0.00 0.00 85 1014.1
20260905141204 18 359 0.0 8.0 0.00 0.00 0.00 88 1014.1
20260905140203 18 2 3.2 12.9 0.00 0.00 0.00 89 1014.1
20260905135205 18 359 6.4 9.7 0.00 0.00 0.00 91 1014.2
20260905134203 18 359 0.0 4.8 0.00 0.00 0.00 93 1014.1
20260905133204 18 2 1.6 8.0 0.00 0.00 0.00 94 1014.2
20260905132203 18 359 0.0 6.4 0.00 0.00 0.00 94 1014.1
20260905131205 17 359 0.0 8.0 0.00 0.00 0.00 94 1014.2
20260905130204 17 359 0.0 4.8 0.00 0.00 0.00 95 1014.3
20260905125203 17 359 1.6 6.4 0.00 0.00 0.00 95 1014.2
20260905124204 17 359 0.0 3.2 0.00 0.00 0.00 95 1014.3
20260905123203 16 359 0.0 3.2 0.00 0.00 0.00 95 1014.3
20260905122206 16 360 0.0 1.6 0.00 0.00 0.00 94 1014.3
20260905121204 16 360 0.0 0.0 0.00 0.00 0.00 94 1014.4
20260905115204 15 360 0.0 0.0 0.00 0.00 0.00 94 1014.2
20260905114204 15 360 0.0 0.0 0.00 0.00 0.00 94 1014.1
20260905113205 15 360 0.0 0.0 0.00 0.00 0.00 94 1014.0
20260905112205 15 360 0.0 0.0 0.00 0.00 0.00 94 1013.8
20260905110205 15 360 0.0 0.0 0.00 0.00 0.00 94 1013.6
20260905105227 15 360 0.0 0.0 0.00 0.00 0.00 94 1013.5
20260905104205 15 360 0.0 0.0 0.00 0.00 0.00 94 1013.5
20260905103247 15 360 0.0 0.0 0.00 0.00 0.00 94 1013.3
20260905102203 15 360 0.0 0.0 0.00 0.00 0.00 93 1013.4
20260905101205 15 360 0.0 0.0 0.00 0.00 0.00 93 1013.6
20260905100205 15 360 0.0 0.0 0.00 0.00 0.00 93 1013.3
20260905095203 15 360 0.0 0.0 0.00 0.00 0.00 93 1013.5
20260905094204 15 360 0.0 0.0 0.00 0.00 0.00 93 1013.3
20260905093203 15 360 0.0 0.0 0.00 0.00 0.00 93 1013.3
20260905092204 15 360 0.0 0.0 0.00 0.00 0.00 93 1013.1
20260905091203 15 360 0.0 0.0 0.00 0.00 0.00 93 1013.1
20260905090204 15 360 0.0 0.0 0.00 0.00 0.00 93 1012.8
20260905085203 15 360 0.0 0.0 0.00 0.00 0.00 93 1012.9
20260905084205 16 360 0.0 0.0 0.00 0.00 0.00 93 1012.6
20260905083205 16 360 0.0 0.0 0.00 0.00 0.00 93 1012.7
20260905082206 16 360 0.0 0.0 0.00 0.00 0.00 93 1012.5
20260905081205 16 360 0.0 0.0 0.00 0.00 0.00 93 1012.6
20260905080203 16 360 0.0 0.0 0.00 0.00 0.00 93 1012.6
20260905075204 16 360 0.0 0.0 0.00 0.00 0.00 93 1012.7
20260905074203 16 360 0.0 0.0 0.00 0.00 0.00 93 1012.8
20260905073227 16 360 0.0 0.0 0.00 0.00 0.00 93 1012.8
20260905072206 16 360 0.0 0.0 0.00 0.00 0.00 92 1012.9
20260905071204 16 360 0.0 0.0 0.00 0.00 0.00 93 1012.9
20260905070204 16 360 0.0 0.0 0.00 0.00 0.00 92 1013.0
20260905065205 16 360 0.0 0.0 0.00 0.00 0.00 92 1013.1
20260905064204 16 360 0.0 0.0 0.00 0.00 0.00 92 1013.1
20260905063204 16 360 0.0 0.0 0.00 0.00 0.00 92 1013.1
20260905062224 16 360 0.0 0.0 0.00 0.00 0.00 92 1013.2
20260905061204 16 360 0.0 0.0 0.00 0.00 0.00 91 1013.3
20260905060203 16 360 0.0 0.0 0.00 0.00 0.00 91 1013.3
20260905055226 16 360 0.0 0.0 0.00 0.00 0.00 91 1013.4
20260905054204 16 360 0.0 0.0 0.00 0.00 0.00 91 1013.4
20260905053205 17 360 0.0 0.0 0.00 0.00 0.00 91 1013.3
20260905052204 17 360 0.0 0.0 0.00 0.00 0.00 91 1013.4
20260905051226 17 360 0.0 0.0 0.00 0.00 0.00 90 1013.4
20260905050204 17 360 0.0 0.0 0.00 0.00 0.00 90 1013.4
20260905045203 17 360 0.0 0.0 0.00 0.00 0.00 90 1013.3
20260905044203 17 360 0.0 0.0 0.00 0.00 0.00 90 1013.4
20260905043205 17 360 0.0 0.0 0.00 0.00 0.00 90 1013.5
20260905042204 17 360 0.0 0.0 0.00 0.00 0.00 89 1013.4
20260905041226 18 360 0.0 0.0 0.00 0.00 0.00 89 1013.4
20260905040203 18 360 0.0 0.0 0.00 0.00 0.00 89 1013.4
20260905035204 18 360 0.0 0.0 0.00 0.00 0.00 89 1013.4
20260905034205 18 360 0.0 0.0 0.00 0.00 0.00 88 1013.5
20260905033204 18 360 0.0 0.0 0.00 0.00 0.00 88 1013.4
20260905032203 18 360 0.0 0.0 0.00 0.00 0.00 88 1013.4
20260905031204 18 360 0.0 0.0 0.00 0.00 0.00 88 1013.2
20260905030204 18 360 0.0 0.0 0.00 0.00 0.00 87 1013.3
20260905025204 19 360 0.0 0.0 0.00 0.00 0.00 87 1013.3
20260905024205 19 360 0.0 0.0 0.00 0.00 0.00 87 1013.3
20260905023224 20 360 0.0 0.0 0.00 0.00 0.00 86 1013.4
20260905022205 20 360 0.0 0.0 0.00 0.00 0.00 86 1013.3
20260905021204 20 360 0.0 0.0 0.00 0.00 0.00 85 1013.3
20260905020204 20 360 0.0 0.0 0.00 0.00 0.00 85 1013.3
20260905015203 20 360 0.0 0.0 0.00 0.00 0.00 85 1013.3
20260905014225 20 360 0.0 0.0 0.00 0.00 0.00 85 1013.3
20260905013204 21 360 0.0 0.0 0.00 0.00 0.00 85 1013.4
20260905012203 21 360 0.0 0.0 0.00 0.00 0.00 85 1013.4
20260905011205 21 360 0.0 0.0 0.00 0.00 0.00 85 1013.5
20260905010205 21 360 0.0 0.0 0.00 0.00 0.00 84 1013.5
20260905005203 21 360 0.0 0.0 0.00 0.00 0.00 84 1013.4
20260905004204 21 360 0.0 0.0 0.00 0.00 0.00 84 1013.4
20260905003203 21 360 0.0 0.0 0.00 0.00 0.00 83 1013.3
20260905001226 21 360 0.0 0.0 0.00 0.05 0.00 83 1013.0
20260905000204 21 360 0.0 0.0 0.00 0.08 0.00 82 1012.9
20260904235203 22 360 0.0 0.0 0.00 0.13 0.00 80 1012.9
20260904234227 22 360 0.0 0.0 0.00 0.84 0.00 80 1012.9
20260904233205 22 360 0.0 0.0 0.00 1.14 0.00 78 1012.8
20260904232225 22 360 0.0 0.0 0.00 1.14 0.00 77 1012.9
20260904231203 22 360 0.0 0.0 0.00 1.14 0.00 77 1012.9
20260904230225 22 360 0.0 0.0 0.00 1.14 0.00 76 1012.8
20260904225224 23 360 0.0 0.0 0.00 1.14 0.00 76 1012.7
20260904224205 23 360 0.0 0.0 0.00 1.14 0.00 75 1012.5
20260904223226 23 360 0.0 0.0 0.00 1.14 0.00 75 1012.4
20260904222203 23 360 0.0 0.0 0.00 1.14 0.00 76 1012.3
20260904221226 23 360 0.0 3.2 0.00 1.14 0.00 76 1012.2
20260904220204 23 359 0.0 4.8 0.00 1.14 0.00 74 1012.1
20260904215203 23 360 0.0 1.6 0.00 1.14 0.00 75 1011.9
20260904214226 23 360 0.0 6.4 0.00 1.14 0.00 74 1011.8
20260904213204 23 360 0.0 0.0 0.00 1.14 0.00 74 1012.0
20260904212203 23 360 0.0 0.0 0.00 1.14 0.00 75 1012.0
20260904211203 23 360 0.0 0.0 0.00 1.14 0.00 74 1012.1
20260904210225 23 360 0.0 3.2 0.00 1.14 0.00 73 1012.3
20260904205204 23 359 0.0 6.4 0.00 1.14 0.00 74 1012.4
20260904204224 23 359 1.6 6.4 0.00 1.14 0.00 72 1012.5
20260904203225 23 359 1.6 9.7 0.00 1.14 0.00 72 1012.5
20260904202203 24 359 0.0 6.4 0.00 1.14 0.00 72 1012.6
20260904201205 24 356 3.2 8.0 0.00 1.14 0.00 71 1012.8
20260904200204 25 359 4.8 12.9 0.00 1.14 0.00 70 1012.7
20260904195224 25 359 1.6 6.4 0.00 1.14 0.00 71 1012.9
20260904194204 24 359 1.6 6.4 0.00 1.14 0.00 70 1012.9
20260904193205 25 357 3.2 9.7 0.00 1.14 0.00 71 1013.2
20260904192208 25 359 1.6 6.4 0.00 1.14 0.00 72 1013.2
20260904191204 24 359 1.6 8.0 0.00 1.14 0.00 73 1013.4
20260904190203 24 359 1.6 6.4 0.00 1.14 0.00 73 1013.5
20260904184203 23 357 3.2 8.0 0.00 1.14 0.00 74 1013.9
20260904183205 23 358 3.2 8.0 0.00 1.14 0.00 74 1014.0
20260904182204 24 359 3.2 8.0 0.00 1.14 0.00 73 1013.9
20260904181204 24 359 0.0 6.4 0.00 1.14 0.00 74 1013.9
20260904180224 24 359 3.2 12.9 0.00 1.14 0.00 72 1013.9
20260904175226 25 359 4.8 6.4 0.00 1.14 0.00 72 1013.9
20260904174205 25 359 3.2 9.7 0.00 1.14 0.00 73 1013.8
20260904173204 25 359 4.8 14.5 0.00 1.14 0.00 72 1014.0
20260904172228 24 356 4.8 9.7 0.00 1.14 0.00 73 1014.2
20260904171225 24 358 6.4 14.5 0.00 1.14 0.00 73 1014.3
20260904170205 24 359 0.0 8.0 0.00 1.14 0.00 69 1014.4
20260904165204 25 359 3.2 14.5 0.00 1.14 0.00 68 1014.5
20260904164204 25 359 3.2 16.1 0.00 1.14 0.00 71 1014.6